Theta_e
368 367 364 360 358 353 350 342 318 325 311 307 307 308 310 321 323 321 321 325 321 329 330 328 325 326 325 324 329 330 331 324 329 312 310 332 347 348 350 349 350 351 351 351 357 357 358 361 361 363 364 364 364 365 365 365 365 364 364 365 365 365 364 363 364 360 359 358 360 364 363 364 365 366 366 366 366 367 367 368 367 367 367 366 366 366 366 366 366 366 366 365 367 367 366 365 365
367 364 358 357 355 351 339 338 319 308 308 306 309 311 314 319 319 318 319 323 325 327 333 333 334 334 334 332 332 330 329 333 335 333 338 345 349 349 350 351 351 351 354 356 357 357 356 359 362 364 364 364 364 365 365 365 365 364 364 365 365 363 364 364 363 361 359 360 362 364 364 364 364 365 366 366 366 367 367 367 367 366 366 366 366 366 366 366 366 365 364 362 361 365 366 366 366
364 360 356 357 354 348 343 334 308 303 304 301 306 311 319 317 319 322 325 326 329 331 332 331 332 331 330 329 325 325 321 337 338 339 339 347 342 346 352 353 354 355 355 355 357 358 358 360 362 364 365 364 364 364 365 365 365 365 365 366 366 364 363 363 362 363 361 362 362 364 365 364 365 365 366 366 366 366 367 367 366 366 365 365 366 366 365 365 365 365 363 362 362 364 365 365 364
364 358 350 353 341 347 329 321 310 304 304 304 305 315 318 318 320 324 328 329 331 331 330 329 327 333 329 324 327 333 331 332 339 338 337 341 342 350 354 355 356 355 355 356 357 357 358 361 362 363 364 364 364 364 365 365 365 366 366 367 366 365 365 365 365 365 365 365 364 364 363 364 365 366 365 366 366 366 366 366 366 366 365 365 366 366 365 364 363 363 363 363 363 362 362 364 365
359 359 356 351 340 330 325 318 312 304 304 302 303 314 319 320 321 323 324 327 329 330 329 329 327 333 333 329 332 325 327 337 339 342 341 346 351 353 355 356 355 354 354 356 357 358 360 363 363 365 365 365 364 364 365 364 364 365 366 366 366 365 366 366 365 366 366 365 364 363 363 364 365 365 365 366 366 365 365 366 366 365 365 365 365 365 365 364 363 361 361 361 361 361 361 363 364
353 352 353 347 334 339 326 307 306 304 308 305 308 314 320 321 320 323 323 325 327 328 328 327 325 327 327 330 335 330 337 329 339 341 344 345 350 354 357 357 354 353 354 356 358 359 360 363 364 365 365 365 365 363 363 363 364 365 367 366 365 365 365 365 366 366 366 364 364 364 365 365 365 365 365 365 365 365 366 366 365 365 364 364 364 364 364 364 363 362 361 359 359 359 359 360 364
344 341 340 341 338 337 315 301 302 303 307 313 314 317 319 322 324 324 322 324 327 329 331 328 330 328 325 332 336 339 344 342 340 342 347 349 352 356 357 355 354 352 354 356 358 359 360 364 365 365 365 365 365 365 364 364 364 366 366 365 365 365 365 365 365 364 365 365 365 365 365 365 365 365 365 365 366 366 366 366 365 364 364 364 363 363 363 363 364 362 361 359 358 359 358 359 361
350 336 334 326 321 316 305 303 304 304 309 319 321 320 322 324 325 322 320 321 320 322 326 330 332 328 327 338 327 338 342 345 346 350 353 354 356 357 357 355 352 353 355 358 359 359 365 364 365 365 365 366 365 365 364 363 363 365 365 365 365 365 365 365 365 365 366 366 366 365 365 365 365 366 366 366 367 366 366 366 365 365 364 364 364 363 363 363 362 363 362 361 361 361 361 360 362
343 337 333 321 309 309 303 304 305 310 316 319 320 326 329 325 325 324 323 325 326 328 329 330 329 324 327 332 331 339 342 347 349 353 353 354 354 356 356 354 352 353 356 359 360 360 362 365 365 365 365 366 366 365 365 364 364 365 365 365 365 365 365 365 365 365 365 365 365 365 365 366 366 367 367 367 366 366 365 365 364 363 363 363 363 363 362 362 361 361 361 362 362 362 362 362 363
337 335 320 318 309 305 303 304 305 310 315 319 321 321 322 326 325 326 324 324 325 328 329 334 332 328 332 328 332 338 340 347 350 350 353 354 355 356 354 354 355 355 357 359 359 360 361 368 366 365 366 365 365 365 365 365 365 365 365 365 365 366 366 366 366 366 365 365 365 365 365 366 366 366 366 366 365 365 364 364 363 362 362 363 362 361 362 362 361 361 362 361 361 362 362 361 362
327 336 326 315 306 302 301 302 304 308 311 313 317 323 326 327 327 325 327 327 330 328 331 334 329 330 332 332 335 345 346 347 347 347 352 353 355 355 354 356 357 358 358 359 359 360 362 363 367 366 366 365 365 366 366 366 366 365 365 365 365 365 365 365 365 365 365 365 365 365 365 365 365 365 365 365 364 364 363 362 362 362 362 361 361 362 363 364 364 363 363 363 363 362 361 361 362
317 321 321 307 304 302 304 304 307 308 312 315 318 324 327 328 328 325 326 325 328 328 328 332 327 334 330 331 334 342 345 345 347 349 352 354 355 356 356 357 358 359 360 360 361 361 362 362 363 366 366 366 366 366 365 365 365 365 365 364 364 365 365 365 365 365 365 365 365 366 365 365 364 364 364 363 363 363 362 362 361 361 361 360 360 361 362 362 362 362 362 362 363 363 363 363 363
323 316 310 306 307 306 307 307 307 312 312 316 318 324 330 327 325 326 326 328 328 326 327 333 336 334 326 330 339 342 341 345 348 351 353 354 355 356 357 357 358 360 360 361 360 360 362 361 362 363 364 366 366 365 366 366 366 366 365 365 365 365 365 365 365 366 366 366 366 365 365 364 364 364 363 363 363 362 361 361 361 361 361 361 361 360 360 360 361 361 361 362 361 365 365 365 365
322 317 311 310 312 309 307 307 309 308 308 316 323 328 329 326 327 328 328 324 325 325 332 337 336 335 331 335 337 337 340 346 349 352 354 354 356 356 356 357 358 359 360 360 359 360 361 362 363 362 364 363 362 364 366 366 366 366 366 366 366 366 366 366 366 366 366 366 366 366 365 365 364 364 364 364 363 363 361 362 361 361 362 363 363 363 362 361 362 361 362 362 362 362 365 365 365
325 321 314 310 307 307 310 307 307 308 308 318 324 326 326 329 329 329 327 324 326 335 337 339 339 332 325 329 330 336 341 347 351 353 353 355 356 355 355 356 357 357 358 359 360 360 360 361 361 360 363 361 361 360 359 362 366 366 367 367 367 367 367 367 367 367 367 366 366 366 365 365 364 364 364 363 362 362 362 361 361 361 362 363 363 363 361 359 362 362 363 363 363 362 361 365 365
324 316 312 309 307 306 308 309 308 309 310 318 322 326 326 327 330 327 329 331 330 336 336 330 339 327 333 332 335 341 345 348 351 353 352 351 352 352 353 354 354 355 357 358 359 360 361 360 360 360 360 360 358 358 357 359 364 366 367 367 367 367 367 367 367 367 366 367 366 365 365 364 364 361 364 361 362 362 361 362 363 362 362 362 364 364 364 363 363 364 363 363 359 353 358 363 363
320 315 311 306 307 307 309 308 309 305 311 316 319 325 322 323 330 331 335 335 329 329 331 334 333 338 336 337 342 346 348 351 352 351 350 347 347 347 348 350 351 353 356 357 358 359 360 360 360 359 359 359 358 357 357 358 361 366 366 367 367 365 366 366 366 366 366 365 364 364 364 360 357 356 356 357 361 362 363 363 363 364 366 365 365 365 365 365 365 365 362 355 354 353 360 363 363
320 316 305 307 306 308 313 311 311 314 313 315 321 324 324 322 326 329 333 330 330 329 329 334 337 338 341 344 347 348 350 350 350 348 346 344 345 344 345 347 349 349 352 354 357 358 358 358 358 357 357 358 356 358 359 361 361 364 359 361 362 364 365 365 362 360 364 358 364 362 358 360 354 352 352 363 358 359 361 363 363 364 364 365 364 364 364 365 364 363 364 363 363 363 363 356 353
313 309 308 307 307 312 315 316 316 316 315 319 322 325 325 323 328 329 325 325 326 325 329 332 333 337 343 345 346 347 349 348 348 347 345 343 343 342 343 345 347 349 351 353 355 357 357 357 358 357 356 357 357 357 359 360 360 359 358 358 361 364 365 364 358 362 356 356 358 358 360 356 352 354 355 359 358 362 361 362 363 363 364 365 363 362 362 363 362 362 360 362 363 365 352 349 349
316 312 308 308 312 314 317 319 318 320 319 319 321 323 324 327 329 331 325 324 325 323 325 329 331 334 339 343 345 346 347 347 347 346 345 343 344 343 343 344 345 348 350 352 354 357 357 357 357 357 357 357 357 358 359 360 359 358 358 357 357 358 360 361 357 357 356 355 357 357 356 355 355 351 364 363 363 360 358 365 363 365 366 363 360 360 361 358 360 357 355 361 357 354 348 347 346
314 313 309 313 313 314 317 320 320 321 322 320 321 321 324 328 329 329 326 322 322 325 330 330 331 335 339 342 344 345 346 346 346 346 345 344 345 346 345 345 346 348 351 353 355 355 357 357 357 357 358 358 358 358 359 358 359 358 357 357 357 356 357 357 358 357 356 355 355 357 356 357 354 352 355 355 352 351 348 349 354 352 349 345 356 345 346 345 348 344 345 351 346 349 349 348 346
313 315 317 317 314 315 318 320 322 321 323 321 320 320 323 329 329 327 325 320 319 325 331 334 336 338 340 342 344 345 344 344 345 345 345 345 345 345 347 347 349 351 353 351 353 354 356 358 357 357 358 358 359 357 358 358 361 357 356 356 355 354 357 357 356 357 357 357 356 357 361 356 354 354 353 351 350 349 347 346 346 346 344 344 349 344 343 344 343 343 343 344 345 345 347 347 346
308 310 312 316 318 318 319 322 321 322 320 320 319 322 326 325 324 327 326 323 325 332 335 337 338 340 343 345 344 343 344 344 345 344 345 345 345 346 347 348 349 349 351 352 354 355 357 358 357 357 357 358 358 358 358 358 358 358 357 356 355 354 355 357 356 355 356 357 358 360 358 355 353 351 351 349 350 348 345 344 343 345 344 343 346 345 343 344 343 343 343 343 344 345 345 346 346
310 308 313 315 320 319 321 322 322 322 322 321 323 326 324 323 320 326 324 328 330 334 337 338 339 341 343 342 343 343 343 344 344 346 346 346 347 347 348 348 350 351 351 352 354 355 357 357 357 357 356 357 357 357 357 357 356 357 356 362 359 359 358 356 356 356 357 357 359 359 362 355 353 351 351 349 349 346 346 343 343 343 344 345 346 345 343 342 343 343 343 343 344 345 345 346 346
308 310 315 317 320 320 322 323 323 323 323 324 326 324 323 325 324 326 325 329 333 336 338 339 340 341 341 341 341 342 343 344 344 346 347 347 348 349 350 350 351 351 350 352 354 355 357 358 358 356 356 357 357 357 356 356 357 356 356 356 356 362 357 355 356 357 356 357 359 360 362 355 353 352 351 350 348 347 344 343 342 342 345 345 345 344 343 342 342 343 344 344 344 344 344 344 345
312 315 317 318 318 321 322 323 324 325 326 327 325 323 325 326 330 326 328 330 335 339 339 339 340 339 339 340 341 341 342 343 344 344 345 346 347 347 348 349 350 349 350 352 354 355 357 358 357 356 356 356 357 357 356 356 356 355 354 355 356 363 357 355 355 356 358 357 357 358 360 356 354 352 351 349 347 346 344 342 343 342 344 344 345 345 346 344 344 344 345 345 345 345 345 344 347
314 317 318 317 319 321 323 323 324 326 326 328 325 324 325 329 328 319 329 332 337 338 337 339 339 338 339 340 340 341 342 342 343 344 344 345 346 346 347 348 349 350 351 351 353 355 357 357 356 356 355 359 356 357 356 356 357 355 355 356 356 359 359 358 356 355 356 357 357 358 359 358 354 352 351 349 346 345 343 342 342 344 343 344 346 347 347 347 345 344 344 344 344 343 344 344 345
317 317 318 319 321 323 323 324 324 327 325 328 327 323 326 328 326 323 328 333 337 336 336 337 338 338 338 339 339 340 341 343 344 343 341 342 343 345 346 347 348 350 351 351 353 354 356 356 355 356 356 357 356 357 359 356 356 356 357 356 355 357 358 355 354 353 357 354 356 357 358 355 357 351 350 348 346 344 343 344 345 346 346 346 349 348 346 347 346 345 345 344 344 343 343 344 344
316 320 315 316 320 319 323 322 324 327 323 328 328 324 321 323 321 326 330 333 335 335 335 336 336 337 338 338 339 339 340 341 342 341 341 343 344 346 345 348 349 350 352 353 353 354 354 355 355 356 356 356 356 356 358 358 357 357 357 355 356 358 356 353 351 351 351 351 352 354 357 354 355 351 348 348 350 344 344 344 345 348 348 348 348 349 348 347 345 344 342 345 341 341 341 339 341
319 318 316 315 316 315 320 324 324 325 325 329 327 310 312 319 324 328 331 332 333 332 332 333 334 336 337 338 338 338 339 339 339 340 340 342 344 345 344 347 350 350 350 352 352 352 354 355 356 356 357 356 356 356 358 358 357 355 357 356 358 356 355 352 352 348 351 350 352 352 355 353 353 350 348 346 346 344 344 345 346 347 348 347 346 347 344 343 342 341 341 340 344 341 336 336 336
313 315 318 312 310 310 319 322 323 322 326 327 323 311 310 319 325 329 331 332 330 328 330 329 331 333 334 335 336 336 337 338 338 339 339 341 343 344 344 346 348 349 350 350 350 352 355 354 356 355 357 356 358 356 358 357 356 355 356 356 356 356 354 352 351 350 350 352 355 355 355 353 353 349 348 346 345 344 344 344 345 346 346 346 344 344 342 340 339 338 340 338 336 335 334 337 336
311 311 302 309 311 309 316 318 323 319 323 325 321 311 313 320 324 328 330 330 330 327 328 328 328 330 331 332 333 334 334 335 337 338 339 340 342 342 343 343 347 347 348 350 351 353 353 353 357 354 356 356 356 356 356 355 355 354 357 360 356 356 355 352 352 354 355 355 358 357 356 354 352 349 347 347 346 345 344 344 345 345 344 344 343 341 340 338 338 338 339 338 334 335 334 334 333
308 308 302 305 307 310 312 316 320 324 323 322 317 310 316 319 326 328 330 329 328 327 326 327 327 328 330 330 331 332 333 332 334 336 338 340 341 343 343 343 345 347 349 350 351 352 352 353 358 354 354 355 355 354 353 352 352 351 355 358 357 356 355 353 355 356 355 354 356 358 357 356 353 350 350 345 346 345 345 345 344 343 345 343 340 339 339 340 337 338 337 340 336 333 334 335 335
305 304 304 306 308 308 306 315 317 320 322 316 319 317 319 321 326 328 329 329 327 325 325 326 327 328 329 329 330 331 332 331 332 334 337 339 341 342 343 347 345 347 350 352 352 352 352 352 355 354 354 356 355 354 352 352 352 351 351 353 359 354 355 355 353 352 351 351 353 356 356 356 353 351 348 347 346 346 345 344 342 341 343 341 339 338 337 338 337 336 337 336 338 335 334 334 334
301 300 301 302 307 310 309 310 314 318 320 316 316 318 318 321 325 327 328 329 327 325 325 326 327 328 328 329 329 330 331 331 332 335 338 340 340 342 343 344 344 347 350 351 352 352 352 352 355 356 355 355 355 355 354 352 353 351 349 351 352 350 350 350 350 349 349 348 351 353 353 354 351 347 346 347 345 346 345 342 342 342 342 341 339 338 338 339 341 340 338 338 338 338 336 336 336
303 304 305 305 304 306 308 313 317 319 315 313 315 315 316 321 323 326 327 328 326 326 326 327 328 328 328 328 329 330 331 332 334 336 340 341 341 342 342 344 344 346 349 350 351 351 351 351 353 354 355 355 354 354 355 352 352 351 348 345 346 348 346 349 348 348 348 347 348 348 348 348 349 347 348 347 345 347 344 343 343 343 343 342 339 339 340 340 341 342 340 339 338 338 340 339 338
305 307 304 305 307 308 311 313 317 320 315 314 315 316 317 321 323 325 327 327 326 326 325 326 328 328 328 328 329 330 331 332 335 337 340 341 342 342 342 344 344 345 347 348 349 349 349 350 352 351 354 354 353 353 352 352 349 346 344 345 345 346 346 345 348 347 347 349 349 349 348 347 346 344 347 348 346 349 347 344 343 344 343 344 344 343 344 342 339 339 340 339 339 337 337 336 337
304 304 303 302 307 305 310 312 317 319 315 311 315 315 316 320 323 324 326 326 324 325 324 326 327 328 329 328 329 330 332 334 335 336 339 341 341 342 342 343 346 342 345 347 348 348 349 351 352 352 353 353 353 353 354 352 349 350 347 346 343 344 346 346 344 346 349 352 350 348 348 346 347 346 348 347 348 346 348 348 348 348 347 347 347 347 346 346 342 337 338 337 335 337 335 334 336
303 302 302 302 302 306 309 313 317 318 315 310 313 313 314 319 322 324 324 325 326 327 326 327 328 328 328 329 329 330 332 332 334 335 338 340 341 342 342 342 343 344 344 347 348 349 349 351 352 353 353 353 353 354 354 351 349 351 349 346 347 343 346 347 345 348 351 349 350 349 348 347 348 348 349 350 348 346 348 349 349 350 350 349 348 347 346 342 338 336 336 335 336 335 338 339 338
301 299 301 299 302 304 300 307 315 316 313 310 313 313 314 318 320 322 324 325 325 327 327 328 330 329 329 329 330 330 332 332 332 334 336 338 340 341 341 342 343 343 344 346 347 348 349 352 352 354 354 354 354 355 357 354 353 349 348 349 348 346 346 353 349 349 349 348 348 350 349 348 349 348 349 349 348 346 345 346 346 345 347 348 347 345 344 343 341 337 336 339 340 336 330 329 338
300 302 300 300 303 305 305 305 312 313 314 316 313 309 309 313 314 316 321 324 324 325 326 326 329 331 331 332 331 332 332 333 333 334 336 337 338 339 341 343 344 343 344 346 348 348 350 350 352 354 354 354 354 357 358 354 352 347 349 350 351 348 347 345 342 342 344 349 349 348 349 349 349 348 348 348 349 347 345 344 341 340 339 340 343 341 342 341 340 337 337 338 338 334 329 328 332
298 299 302 302 304 306 306 309 310 306 306 313 314 299 302 308 313 316 318 319 320 322 321 323 325 328 329 329 330 331 334 335 334 334 336 337 338 340 342 343 343 343 344 347 349 350 351 351 352 353 354 354 354 354 356 353 354 347 345 343 342 339 339 338 337 338 337 345 347 348 349 350 350 347 347 347 349 346 341 339 338 337 337 337 341 339 338 335 335 334 336 335 333 333 331 327 325
299 299 302 304 303 305 307 308 308 301 301 309 315 304 295 302 309 314 316 317 317 319 319 321 323 326 327 328 329 330 332 333 335 336 337 337 338 340 342 343 343 343 345 348 350 351 351 351 352 353 353 352 353 353 354 353 349 346 346 344 343 342 341 339 334 333 339 338 337 340 345 343 342 340 339 339 340 341 337 337 336 336 336 336 344 337 336 336 336 335 337 333 333 334 331 326 325
297 299 301 303 302 302 306 308 308 304 310 311 311 304 299 298 309 314 315 315 315 316 318 320 322 324 326 328 330 331 332 334 335 336 338 338 339 340 341 344 344 345 346 349 351 352 352 352 352 352 353 353 351 351 351 351 348 345 343 342 343 340 340 339 332 331 332 336 333 335 336 335 335 336 337 336 337 340 338 337 335 335 336 337 342 334 334 335 335 335 340 333 333 335 329 329 329
299 302 303 302 303 303 305 307 306 304 307 300 308 309 301 299 305 312 313 311 312 314 316 318 321 323 325 327 329 331 333 334 335 336 337 338 338 341 343 344 346 346 347 348 350 352 354 353 353 352 351 351 349 349 351 349 350 346 344 341 340 340 337 334 336 337 335 335 331 331 332 333 333 334 335 336 336 340 343 336 334 334 334 337 341 334 335 334 335 334 333 333 332 332 330 331 330
304 305 304 303 304 303 305 304 304 304 302 297 304 306 300 294 301 306 309 311 311 313 316 318 320 323 325 326 329 331 333 335 336 337 339 340 340 342 344 346 347 348 349 350 350 352 352 352 353 352 350 350 349 349 351 349 348 346 339 337 337 331 335 333 333 333 331 330 329 330 331 332 332 333 334 334 335 339 338 338 335 335 334 337 341 332 332 332 333 333 334 333 331 331 331 334 331
305 304 303 301 301 301 304 301 300 301 295 298 306 308 305 295 301 307 306 309 314 316 316 318 320 322 325 327 329 330 332 334 336 337 338 340 342 343 344 345 346 348 349 350 350 350 351 351 351 350 350 349 349 349 350 348 344 340 337 332 331 331 332 332 330 329 328 326 328 331 331 332 331 331 332 333 335 336 336 339 336 335 336 343 340 331 332 332 332 331 332 333 334 332 330 333 334
305 301 300 299 297 297 297 295 301 295 291 297 306 307 306 296 296 305 313 317 317 317 315 316 318 321 324 327 329 331 332 334 336 336 337 339 341 343 344 343 344 346 348 349 350 350 350 350 351 350 349 348 347 348 347 346 341 336 332 330 330 331 331 330 329 329 328 327 327 333 330 330 328 330 330 331 335 336 338 336 337 336 339 335 332 331 331 332 332 332 330 330 329 329 330 336 332
302 299 298 295 286 290 290 293 292 290 293 298 303 307 301 301 300 309 313 315 317 318 318 318 318 321 323 326 329 331 332 334 336 336 337 338 340 341 342 343 343 344 346 348 349 350 350 350 350 349 348 347 345 343 343 341 336 332 329 328 329 330 329 329 329 328 328 326 328 330 327 327 328 329 329 334 334 335 337 333 332 330 333 333 333 331 332 332 331 330 329 330 328 328 331 333 332
299 298 294 292 288 288 282 284 286 288 294 296 301 307 301 298 305 308 313 316 318 319 319 319 319 321 322 325 328 331 332 334 335 337 338 339 340 341 342 343 343 344 345 347 349 349 350 350 349 349 348 346 343 339 339 335 333 332 329 329 329 331 327 327 327 329 330 329 331 330 328 328 328 328 331 332 335 334 336 334 335 331 329 329 334 331 330 331 331 330 330 330 329 331 329 329 328
300 299 300 295 293 288 286 286 289 292 296 297 300 301 295 300 303 310 314 318 319 320 320 319 320 322 324 326 328 330 332 333 335 336 338 339 340 341 342 343 343 344 345 347 348 349 349 349 349 349 347 344 341 337 336 334 331 331 330 330 330 331 328 328 327 331 332 330 330 330 328 327 325 326 332 332 334 333 333 331 333 331 331 330 333 334 337 334 333 334 333 331 333 330 331 332 330
298 299 301 295 296 295 292 290 290 291 291 292 297 297 299 305 305 311 315 313 316 319 318 319 319 321 322 324 326 328 331 333 335 335 337 340 341 341 342 342 343 344 345 346 347 348 349 349 349 349 348 344 339 337 334 333 331 331 331 330 330 332 334 330 331 336 332 331 330 329 328 327 327 329 331 332 332 332 330 332 334 332 329 330 330 330 329 329 330 330 329 329 331 335 331 330 331
298 300 296 298 302 301 297 299 299 295 292 290 295 298 297 301 305 307 315 313 313 318 318 319 319 320 321 323 325 327 330 333 334 335 337 339 340 341 341 342 343 344 345 346 347 348 349 349 348 348 347 343 339 337 334 333 332 331 330 330 330 330 331 328 329 332 331 330 330 328 328 328 328 330 330 333 331 330 330 332 332 332 329 329 328 330 330 329 329 329 330 329 330 330 332 332 332
298 296 298 301 304 300 297 291 292 290 287 289 294 295 294 297 294 306 314 312 314 316 316 318 318 319 320 323 325 326 328 332 335 336 337 339 340 341 341 342 343 344 345 346 347 348 349 349 349 348 346 342 339 337 334 332 332 331 330 328 329 330 330 329 330 331 330 330 328 327 327 328 327 330 330 333 332 330 329 340 330 330 328 328 330 329 329 329 328 328 329 329 330 329 330 332 333
305 303 303 301 293 295 294 293 289 287 288 287 291 294 295 296 297 304 309 311 312 314 316 316 317 319 320 322 324 325 328 331 333 334 336 338 339 340 341 342 343 344 345 346 347 348 349 349 349 348 346 344 340 338 335 334 333 332 331 329 329 329 329 329 330 330 328 328 328 326 326 327 327 328 333 331 330 328 328 329 331 329 328 330 329 329 329 328 327 328 329 329 330 328 328 329 331
305 303 301 304 300 294 294 295 293 293 286 288 288 291 294 300 298 305 307 312 313 314 314 316 318 319 321 322 323 324 326 329 332 333 335 337 339 340 341 341 342 343 344 345 346 347 348 348 348 347 347 344 340 337 337 334 333 333 331 329 330 330 330 330 330 328 327 327 328 327 327 325 326 331 330 330 329 329 329 328 329 330 329 328 327 327 327 328 326 329 329 330 330 328 327 329 330
297 299 297 300 304 299 298 299 293 294 286 285 285 288 291 296 302 307 308 312 315 316 316 317 318 320 321 322 323 324 325 328 331 333 334 336 338 340 341 342 343 344 344 345 345 346 347 348 347 347 345 342 339 338 336 335 334 333 332 329 329 330 329 330 330 328 328 327 327 329 327 327 328 328 330 329 329 328 328 329 329 330 328 327 326 326 327 326 325 327 327 327 326 326 328 329 330
300 300 298 297 295 296 293 292 296 295 292 285 286 289 290 299 310 310 310 314 317 318 318 318 319 320 321 322 324 324 324 327 330 333 334 335 337 339 341 342 342 342 343 343 344 345 346 346 347 346 345 342 340 338 337 336 334 333 331 330 329 330 329 329 329 329 328 328 327 328 327 328 327 328 329 330 329 330 330 329 328 327 327 327 327 327 328 326 327 326 326 328 328 327 328 329 328
Wind_Speed
6 4 3 4 2 2 3 3 2 1 3 3 2 3 4 4 5 6 5 4 4 2 1 8 9 7 1 3 9 8 11 2 2 4 3 2 4 8 7 7 8 9 7 2 7 6 6 13 17 19 19 18 19 19 18 18 20 21 21 22 21 21 21 21 21 19 16 14 11 15 15 15 14 14 13 13 12 12 11 11 11 11 10 10 10 9 9 9 8 7 7 7 7 7 8 9 9
5 4 4 2 1 1 0 1 2 3 4 6 2 1 3 3 4 3 5 4 2 2 4 8 9 13 16 14 8 5 10 8 2 5 5 6 9 8 8 8 8 8 7 6 6 7 7 8 14 18 18 18 18 19 19 18 19 21 22 22 20 21 21 20 20 19 17 15 15 16 15 14 15 14 13 12 12 11 11 10 10 10 10 10 9 9 8 8 7 6 6 5 5 6 7 8 9
7 6 4 1 1 1 0 1 1 1 5 5 3 3 5 8 7 5 7 10 10 9 13 12 10 7 6 2 7 6 3 4 7 8 6 8 10 5 8 9 8 7 8 5 6 6 5 8 12 17 17 18 18 19 19 18 19 19 20 19 19 20 21 21 20 19 20 20 18 17 15 15 14 14 13 12 12 11 11 11 10 10 10 9 8 8 8 7 6 6 5 4 4 5 6 6 7
6 3 6 1 1 2 1 1 3 5 5 2 4 5 8 7 7 8 7 10 10 9 6 4 5 4 6 13 7 10 7 3 4 6 6 5 4 9 8 10 9 6 6 4 5 6 7 11 15 17 16 16 17 18 19 19 18 17 16 16 18 19 18 18 20 20 19 18 17 16 16 15 14 14 13 13 12 11 11 11 10 10 9 9 9 8 8 6 6 5 5 4 4 4 4 4 5
5 3 2 2 3 1 1 1 3 1 6 2 5 4 10 10 10 9 5 3 5 4 4 6 6 6 8 8 1 1 3 5 4 3 5 4 8 8 9 9 8 7 8 6 5 6 8 16 15 16 18 18 19 18 16 18 18 18 16 15 15 16 16 16 16 17 17 16 16 16 16 15 14 14 13 13 12 12 11 11 11 10 10 10 9 9 8 6 5 4 4 4 4 3 3 3 4
4 4 2 3 1 0 0 2 2 1 3 4 6 6 9 8 11 11 9 7 5 5 3 6 6 5 4 4 3 4 4 4 5 5 5 6 9 9 10 8 8 7 7 6 6 5 7 16 16 17 17 17 16 17 19 18 17 15 15 15 15 15 15 15 15 15 16 16 16 15 15 14 14 14 13 13 13 12 12 12 11 11 10 10 9 8 8 7 5 4 3 2 1 3 2 2 3
4 5 1 2 3 1 3 5 3 3 2 5 8 9 9 9 10 13 11 11 9 11 5 11 15 13 9 2 7 2 1 6 4 5 5 9 10 10 10 9 8 8 7 6 5 6 8 14 17 18 19 18 16 15 15 14 13 13 15 16 16 16 16 16 16 16 16 15 15 15 15 14 14 14 14 13 13 13 13 12 11 11 10 9 8 7 7 6 5 4 3 2 1 1 1 1 2
2 2 2 2 1 1 3 3 4 2 2 4 9 14 12 12 11 10 6 9 4 5 3 3 2 13 7 4 5 4 7 2 8 8 11 10 10 10 9 9 9 9 8 6 5 6 11 14 16 17 18 18 17 16 16 15 13 13 16 16 17 16 16 16 16 15 15 15 14 14 14 14 14 14 14 14 13 13 12 11 10 9 8 7 6 5 4 4 3 3 3 3 2 2 2 2 3
2 3 1 1 1 2 3 3 3 0 6 8 6 10 11 9 8 10 8 7 10 7 11 9 2 10 3 9 5 4 5 7 9 10 10 10 11 9 7 9 9 8 8 7 6 5 8 14 15 17 17 17 18 17 17 17 16 16 17 17 16 16 16 15 14 14 14 14 14 14 14 14 14 13 13 12 11 10 10 8 7 6 5 5 4 4 3 3 3 3 3 3 3 3 3 4 5
2 1 3 1 2 5 3 2 6 3 7 7 13 11 10 8 8 13 12 7 8 10 4 6 5 13 11 11 6 3 3 10 10 9 8 9 9 8 9 9 9 10 8 6 6 5 5 14 16 16 17 17 18 18 18 18 18 17 16 16 15 15 15 15 14 14 13 13 13 13 13 13 13 12 11 10 9 8 7 6 5 5 4 3 3 3 2 2 3 3 2 2 2 3 4 5 5
2 1 1 0 3 3 5 3 5 4 7 5 5 6 10 11 11 9 9 9 4 8 9 13 10 14 9 5 4 4 8 11 11 10 10 9 9 9 8 8 9 9 8 8 6 5 6 7 16 15 16 16 16 16 16 16 16 16 15 15 15 15 15 14 14 14 13 13 13 12 12 12 11 10 9 8 7 6 5 4 4 3 3 2 3 3 2 3 3 4 4 4 4 5 6 6 6
1 2 1 2 2 5 3 7 6 4 6 7 5 8 5 13 13 10 12 11 7 10 10 3 5 10 11 5 3 6 9 9 10 10 10 9 8 8 8 7 8 7 8 8 7 5 6 6 7 13 15 16 15 15 15 16 16 16 16 16 16 16 15 15 15 14 14 13 12 11 11 10 10 9 8 7 6 5 5 4 4 4 4 4 4 4 4 5 5 6 6 6 6 6 6 7 7
1 2 3 5 1 3 3 8 5 8 6 6 11 4 9 11 12 12 9 12 11 13 5 3 13 3 6 5 5 8 9 10 10 10 10 8 7 7 7 7 6 6 7 6 5 5 6 5 5 6 10 16 15 15 15 15 15 15 15 16 16 16 16 16 15 14 13 13 12 11 10 9 9 9 8 8 8 7 6 6 6 6 5 5 6 6 6 6 7 7 7 9 8 8 7 7 6
3 5 4 2 0 4 5 5 5 7 2 4 4 10 6 9 8 13 12 13 11 6 4 14 5 8 10 8 7 7 8 10 11 11 9 8 7 6 7 6 6 6 6 6 5 5 5 5 5 5 7 7 6 11 14 15 14 15 15 15 15 15 15 14 14 13 12 12 11 10 10 10 10 10 9 8 7 7 6 6 6 5 6 6 7 7 7 7 8 8 8 9 11 10 8 7 7
8 1 4 4 2 2 1 8 8 8 5 6 8 10 5 3 13 13 16 14 2 10 12 2 6 9 8 13 8 10 11 13 12 11 10 9 8 6 6 5 6 6 6 5 4 5 5 4 5 4 4 4 4 4 4 9 14 14 14 14 14 14 14 13 13 12 11 11 11 11 10 10 10 9 9 8 7 7 7 6 6 6 7 8 8 8 7 8 8 10 9 11 11 11 8 7 8
7 4 3 3 2 5 3 7 4 9 6 6 9 8 10 6 9 12 6 7 8 8 11 6 4 1 7 3 11 14 15 14 12 11 10 9 9 7 6 5 5 6 4 4 5 4 4 4 3 3 3 3 3 3 3 4 10 13 13 13 12 12 12 12 12 11 10 10 10 10 10 8 7 5 8 6 7 8 6 3 4 6 8 8 8 8 8 8 9 10 12 12 9 9 13 9 8
1 2 0 2 2 3 4 4 9 8 7 7 8 13 12 8 3 4 7 10 17 12 2 4 5 3 12 4 12 15 15 13 12 12 10 7 7 6 6 5 5 4 4 4 4 4 4 4 3 2 3 3 3 2 2 2 4 11 9 11 11 10 10 10 10 10 9 8 8 8 7 2 2 2 2 2 6 1 2 3 5 7 7 7 7 7 7 8 9 10 11 9 7 9 10 8 8
1 0 4 2 4 2 5 8 7 8 12 10 13 13 17 12 5 7 11 8 10 7 7 5 7 8 7 12 12 15 15 15 14 13 10 8 7 7 6 6 6 6 5 5 4 4 4 3 4 3 3 4 2 1 1 1 2 7 3 3 4 5 7 7 5 3 6 1 7 4 2 1 1 1 1 4 1 2 3 6 6 8 10 9 7 7 7 9 9 10 11 11 11 10 8 4 4
3 1 2 6 5 5 5 5 6 12 11 13 13 14 18 14 16 9 10 10 9 9 8 10 8 10 12 13 14 15 16 15 15 14 14 12 10 11 9 8 8 7 6 6 5 6 5 4 4 5 5 4 3 3 2 1 2 2 2 2 3 5 4 4 2 3 1 3 2 3 2 1 2 2 2 3 2 5 4 6 7 9 9 7 5 6 7 8 8 8 9 10 9 7 4 3 3
3 4 4 5 6 3 5 8 9 12 16 14 12 10 11 14 12 9 13 13 10 13 12 8 11 13 15 15 16 15 15 15 14 14 14 13 11 12 10 11 9 9 8 8 7 6 6 6 6 6 6 5 4 4 3 3 3 3 3 3 2 2 3 3 3 2 2 2 2 3 3 2 2 3 5 8 7 3 3 5 7 9 8 5 5 4 5 6 6 8 8 7 5 3 1 1 2
2 3 5 6 4 4 4 9 8 13 17 16 13 8 12 13 11 10 14 12 8 8 15 21 17 16 17 17 17 16 15 15 14 14 13 12 11 9 9 10 10 9 8 6 5 7 7 7 6 6 6 5 5 5 4 5 4 4 3 3 3 3 3 2 3 3 2 2 2 2 3 2 2 4 3 3 1 1 1 2 2 1 2 2 4 3 2 2 3 3 4 4 3 3 3 2 1
3 7 8 7 4 4 6 8 13 13 14 15 12 15 13 11 9 12 19 16 12 13 12 14 20 19 19 19 17 15 16 15 14 14 14 14 14 12 9 7 5 5 5 7 8 7 8 8 8 7 6 5 6 6 6 5 5 5 4 4 4 2 4 3 3 3 3 3 3 2 3 3 4 4 3 3 2 1 2 2 2 1 1 1 2 1 1 1 1 1 2 3 3 3 3 3 1
4 5 3 6 9 6 5 9 12 13 10 14 14 11 12 12 10 14 18 17 12 12 15 17 21 22 21 19 18 17 18 19 16 15 14 13 12 11 11 10 9 8 7 8 7 7 8 8 8 7 6 6 7 5 4 4 5 5 5 5 5 4 4 4 4 4 4 4 4 4 5 4 4 4 3 3 3 2 2 2 2 0 0 1 1 2 2 2 2 1 2 3 3 3 4 3 2
5 9 5 11 13 10 8 11 13 11 15 13 8 11 14 12 13 10 8 2 10 12 13 15 15 17 18 18 17 18 18 18 19 18 16 16 16 14 12 12 9 6 7 8 8 8 8 10 8 7 7 7 6 5 4 5 4 4 4 5 5 5 5 5 5 5 4 5 5 5 5 5 5 4 4 4 4 2 3 2 2 1 1 3 1 2 2 3 3 2 2 3 3 3 3 3 3
5 7 7 8 9 8 7 11 11 11 9 8 11 12 10 16 11 10 4 8 10 13 13 14 16 16 16 17 17 16 15 15 15 15 13 11 12 11 10 8 9 8 10 10 9 9 9 9 8 9 7 7 5 5 5 4 4 5 5 5 5 5 5 6 6 4 5 5 5 6 5 5 4 4 4 5 3 4 3 3 3 2 3 3 1 1 2 3 3 2 3 4 3 3 3 4 3
4 7 6 7 7 10 9 11 11 12 7 12 13 8 6 8 13 4 5 9 12 15 15 15 16 17 16 16 16 15 15 16 15 14 14 11 12 12 12 11 11 11 13 11 9 8 8 8 9 10 9 8 7 6 5 5 5 5 6 6 5 5 6 6 4 5 5 5 5 6 6 6 5 6 5 4 4 5 4 3 3 3 4 3 0 2 2 2 4 3 3 3 3 3 3 4 3
2 6 7 11 12 11 9 14 10 8 8 14 13 10 10 10 10 1 3 10 14 16 16 15 16 17 15 14 14 13 16 16 16 13 11 10 11 12 13 12 12 12 10 10 9 8 7 8 9 9 8 6 6 7 6 7 6 6 6 6 5 6 6 5 5 5 5 5 6 6 6 6 5 5 5 5 5 5 4 5 5 3 4 3 2 3 1 1 2 3 2 2 2 2 3 4 3
6 7 8 8 10 10 10 12 12 12 4 13 17 10 7 1 1 12 12 11 17 18 16 16 14 14 13 14 13 12 13 13 12 13 15 14 12 12 12 11 12 11 11 11 8 7 8 9 9 9 9 8 7 8 7 7 7 7 6 5 6 6 5 5 6 5 6 5 5 5 6 6 5 5 6 5 5 5 5 5 4 3 4 3 3 3 3 2 2 1 1 1 1 2 4 3 2
7 14 10 5 9 8 10 14 10 12 6 12 15 11 3 2 7 11 14 15 15 17 17 16 14 13 13 13 12 11 12 11 11 11 13 12 11 11 13 12 12 10 8 10 8 8 10 10 9 10 9 8 8 9 8 7 6 6 6 6 6 5 6 5 6 6 6 5 5 5 6 6 5 6 6 6 5 5 5 4 4 4 4 3 3 3 2 1 0 0 1 1 3 3 3 4 3
6 6 12 8 6 6 3 4 6 13 9 16 12 5 5 2 8 12 13 15 15 15 15 14 12 12 12 12 12 11 10 11 12 11 10 11 11 11 12 11 11 9 8 7 8 9 8 7 7 7 8 9 9 8 7 6 7 6 6 6 5 5 5 6 6 5 5 5 5 6 6 6 6 6 6 6 5 4 4 4 4 4 4 2 2 3 3 1 1 1 2 3 3 3 4 4 5
7 4 3 10 9 7 5 3 7 12 8 12 4 8 6 3 10 13 14 16 17 16 15 13 13 12 11 11 11 11 11 11 12 11 11 11 10 10 12 11 11 10 7 8 10 10 9 8 7 7 8 9 9 9 8 7 6 7 6 6 6 6 5 6 5 4 5 5 5 6 6 6 6 6 6 4 4 2 3 3 4 5 2 2 3 3 4 2 1 2 2 2 2 3 3 4 3
2 9 1 1 12 4 5 3 10 14 5 3 9 3 7 10 11 13 14 15 16 16 14 13 12 12 12 11 12 12 11 10 11 11 12 12 11 10 11 11 11 10 10 10 10 9 10 9 8 9 8 9 9 9 8 8 7 7 6 6 6 6 5 6 5 5 5 5 5 5 6 6 6 4 3 3 3 3 4 5 5 3 3 1 2 2 2 1 1 2 2 1 2 4 2 4 2
3 6 5 7 3 9 3 7 7 13 14 4 2 6 5 4 11 14 14 16 15 14 14 13 13 13 13 11 11 11 10 9 9 11 11 11 10 10 10 11 11 12 11 10 11 10 10 9 9 10 10 9 8 8 7 6 6 6 7 7 8 7 6 6 6 5 5 5 5 5 6 6 4 5 4 7 4 3 5 5 4 2 1 1 2 2 1 1 1 2 2 2 3 4 3 4 4
9 1 9 7 13 9 6 7 9 5 15 7 3 10 12 10 16 16 15 17 15 14 15 14 13 12 13 11 11 11 11 11 11 11 12 12 10 11 10 11 12 11 11 12 12 12 11 10 9 9 9 9 7 7 7 7 6 6 6 6 5 6 6 5 4 5 5 5 4 5 5 5 4 4 5 5 5 6 5 4 2 1 1 1 1 1 1 1 2 2 3 2 3 3 4 4 6
10 4 5 4 6 19 14 13 9 7 7 12 5 7 7 9 15 16 17 16 16 16 15 15 14 13 13 12 11 12 12 12 12 10 12 12 12 11 10 10 10 10 10 12 11 11 10 9 8 9 8 8 7 6 6 6 6 4 3 4 4 4 3 3 3 4 4 4 5 4 3 3 6 5 3 6 6 6 5 2 2 2 2 2 1 1 1 1 2 3 4 4 2 4 4 5 5
10 10 12 11 10 9 13 13 8 17 9 6 10 10 8 13 14 14 15 16 15 15 14 13 14 13 13 13 12 11 12 14 12 10 12 12 11 11 10 9 9 9 9 10 11 11 10 9 8 7 7 7 6 5 5 5 4 5 5 2 2 2 3 3 3 4 3 3 2 3 4 5 7 6 7 5 6 4 3 2 2 2 2 1 2 2 1 2 4 3 3 3 4 3 5 5 5
6 1 4 12 13 12 3 7 10 12 7 9 11 11 12 16 18 17 17 15 13 13 14 13 13 14 14 13 14 13 13 15 11 12 12 13 12 11 10 9 9 9 9 10 10 10 10 10 9 9 7 6 7 6 6 6 4 2 1 3 4 5 5 3 3 3 2 2 3 4 4 5 7 6 4 4 4 5 3 2 2 3 2 2 3 3 4 5 4 2 2 2 3 3 3 3 4
3 2 2 6 11 13 11 9 9 10 9 4 0 9 12 17 15 15 14 15 16 16 16 15 16 15 14 15 15 14 14 9 9 8 10 11 11 11 10 9 9 10 8 9 11 10 8 8 10 9 7 7 8 8 7 5 4 5 5 6 3 4 4 5 5 4 4 3 4 5 5 4 4 4 3 4 4 4 4 4 4 4 3 4 4 3 4 5 4 3 2 3 2 3 3 2 3
1 3 2 1 6 1 2 3 10 10 4 5 5 10 11 13 15 13 16 19 16 16 17 17 17 15 13 14 15 15 10 9 11 13 12 12 13 12 10 10 10 12 11 11 10 9 8 8 8 8 7 8 8 7 6 6 4 4 4 3 5 2 0 2 3 3 4 4 4 5 5 5 5 5 5 5 5 4 4 4 4 4 5 5 3 4 4 4 4 4 3 3 4 1 3 3 4
3 2 3 5 4 5 4 4 11 9 4 7 8 7 2 3 4 10 13 15 12 14 16 14 15 17 16 16 16 15 14 13 14 14 14 14 13 12 11 10 10 9 9 9 9 10 8 8 7 8 8 8 7 7 6 6 5 3 2 4 3 3 3 3 3 3 4 4 5 5 5 6 5 5 5 5 4 4 4 5 4 4 4 3 4 3 4 6 5 5 3 4 4 3 1 2 2
2 4 4 2 3 5 3 7 7 3 6 6 8 5 1 3 7 8 9 9 7 9 10 10 12 14 17 16 15 15 16 15 15 14 13 14 14 14 14 12 10 10 10 10 10 10 8 10 9 9 9 8 7 7 7 5 4 4 3 4 3 4 4 3 2 1 3 4 4 5 6 5 5 5 5 5 5 5 4 4 3 2 2 3 3 4 4 6 5 4 4 3 3 4 2 1 2
2 4 8 7 6 7 5 10 12 5 0 4 14 1 5 5 9 12 9 8 12 9 11 13 13 14 11 10 14 14 14 15 16 16 16 15 15 13 12 12 12 11 11 11 11 11 9 9 9 8 7 7 7 6 7 6 6 7 5 5 4 2 3 3 4 6 5 5 6 4 4 5 5 4 4 4 5 3 3 2 2 2 2 3 3 4 4 3 3 3 4 4 3 3 2 0 1
3 6 8 10 8 6 10 15 10 7 11 10 11 13 5 1 10 11 9 11 13 6 11 15 13 13 12 13 13 13 13 12 12 13 14 15 14 14 13 13 13 13 12 11 10 10 11 10 10 9 9 7 6 6 6 6 6 6 7 8 7 7 6 4 2 3 6 3 3 5 6 4 4 5 4 4 3 2 2 2 2 2 2 2 1 1 2 3 3 3 1 2 3 1 2 1 1
4 4 6 6 5 5 11 17 16 9 1 2 4 2 5 3 12 10 9 10 11 11 12 14 14 14 15 14 14 14 14 14 14 15 16 16 16 17 16 15 13 14 12 10 10 10 11 10 9 9 7 7 6 6 6 7 7 6 6 5 5 6 6 6 4 4 2 3 4 4 4 4 4 3 3 2 2 3 3 3 3 3 3 2 2 3 2 2 1 1 1 2 1 1 2 1 2
6 3 7 5 7 9 9 12 12 7 11 4 9 0 1 4 5 6 9 9 11 16 17 16 16 16 16 16 16 16 16 16 16 15 16 17 18 17 16 15 14 13 12 12 11 11 10 9 9 7 8 7 6 7 7 7 7 8 8 6 5 4 4 4 4 3 5 3 5 2 4 3 3 2 3 4 3 4 4 5 4 3 3 2 1 1 0 0 0 0 1 1 2 2 2 2 2
7 4 3 2 1 4 7 9 9 2 7 8 12 9 7 4 2 6 5 10 14 18 20 19 17 18 17 16 16 17 15 14 15 17 18 18 18 17 16 15 14 13 12 12 11 10 9 8 8 8 9 7 7 7 8 8 7 7 7 6 7 5 4 3 5 6 5 4 4 4 3 4 3 2 3 3 4 4 4 4 4 4 4 3 1 3 2 1 0 0 0 1 1 1 2 3 3
2 4 1 1 3 1 1 2 5 4 6 8 16 16 12 8 6 12 12 14 20 18 14 13 11 13 15 16 17 16 15 15 14 15 15 16 16 17 15 15 15 12 11 12 11 11 10 9 10 10 10 8 7 8 8 9 7 7 8 8 8 8 6 7 6 5 4 3 4 4 4 5 4 6 4 2 4 4 4 4 5 4 4 3 3 3 3 3 3 2 1 0 0 1 2 3 3
5 2 3 2 4 5 3 3 2 6 6 8 12 16 14 10 4 7 15 20 23 21 20 20 19 20 18 16 16 16 16 15 15 14 14 14 11 11 12 14 14 13 12 12 12 11 10 10 10 11 9 9 8 8 9 9 8 8 7 9 9 9 10 8 9 9 8 8 6 7 6 6 4 2 2 4 4 4 4 4 4 4 4 4 4 3 3 2 1 2 1 1 1 2 0 2 2
5 3 3 5 4 1 3 1 3 5 8 8 10 11 1 10 7 13 18 17 18 19 18 20 22 21 20 17 17 14 14 14 15 15 14 14 15 15 15 15 14 14 14 14 14 12 11 11 12 12 11 10 9 9 10 9 9 9 9 9 8 8 9 10 10 9 8 8 7 6 6 6 3 3 3 5 4 6 4 4 3 4 3 3 3 2 3 3 2 2 2 2 2 2 3 3 3
7 7 5 5 3 4 3 3 1 3 6 5 6 12 8 2 8 6 14 22 25 23 19 18 18 21 20 18 15 13 14 15 15 15 14 15 15 15 16 15 15 14 14 15 14 13 12 11 12 13 13 11 9 10 11 11 11 10 9 10 9 9 9 9 9 9 8 7 7 7 7 7 7 6 5 5 7 5 4 4 4 4 3 3 3 3 3 3 3 3 3 3 3 5 3 3 3
9 5 10 7 7 5 4 3 6 8 11 2 0 9 5 6 8 12 19 22 21 16 17 13 11 17 17 16 14 14 14 14 14 14 15 16 17 17 16 16 15 15 16 16 14 14 13 13 13 14 14 12 12 12 11 12 10 10 9 9 10 9 9 8 8 8 8 7 6 7 7 6 7 6 6 6 5 5 4 3 4 4 3 3 3 2 3 2 2 2 2 3 3 3 4 4 4
3 4 5 7 10 7 7 7 7 6 4 1 2 6 8 11 5 4 3 7 8 6 7 7 9 12 9 8 13 14 15 15 15 15 16 16 17 16 15 14 15 15 17 15 15 14 14 15 15 16 17 15 14 13 13 13 12 10 10 10 11 10 8 8 7 6 6 7 8 8 7 6 6 6 5 4 5 4 4 4 3 4 3 3 3 3 3 3 3 2 3 2 4 2 3 3 5
3 6 7 8 8 9 2 2 0 3 2 4 2 2 4 7 5 3 6 3 6 10 11 12 14 13 11 12 14 15 15 15 15 16 15 15 14 14 15 16 15 14 14 15 17 17 19 17 16 17 16 14 15 15 14 13 12 11 11 11 10 9 9 9 8 7 7 6 7 7 7 7 6 6 6 4 5 4 4 4 4 4 3 3 3 3 3 3 2 2 3 3 5 4 3 4 4
4 5 9 2 3 3 6 7 0 1 5 5 4 9 3 4 6 2 1 2 5 12 14 16 13 12 14 15 14 15 16 17 18 17 16 17 18 19 17 16 17 17 18 18 19 18 17 17 18 19 17 18 17 16 14 13 13 13 12 11 11 11 10 9 8 9 7 7 5 6 5 6 6 6 5 5 4 4 4 4 4 4 4 3 4 3 3 4 3 3 4 4 5 3 3 4 5
16 12 7 6 3 5 2 3 3 2 2 2 3 3 3 8 5 1 6 8 9 10 10 9 11 14 16 15 16 15 15 14 13 14 13 13 14 16 17 18 18 18 18 19 19 17 15 14 15 17 19 20 18 15 13 12 13 11 10 12 12 10 9 9 8 8 7 7 7 6 6 7 5 4 4 4 4 4 3 3 4 4 3 4 3 4 4 3 3 4 4 5 4 3 4 5 6
1 5 3 1 6 5 5 7 4 5 4 2 5 1 6 7 5 11 11 12 10 8 9 14 16 18 16 15 15 15 14 14 14 14 14 15 17 18 19 19 18 18 17 16 16 14 16 17 16 16 15 12 11 13 13 14 13 12 11 10 10 10 9 9 9 8 7 7 7 7 6 5 7 5 4 4 4 4 4 4 4 5 4 3 3 4 3 4 3 4 5 5 5 2 3 5 6
4 5 4 2 1 3 4 1 5 6 5 5 4 3 4 7 8 10 8 10 13 17 17 15 15 16 16 15 15 15 15 14 14 15 15 16 17 18 18 18 18 18 17 16 15 17 18 16 16 16 16 16 16 16 14 13 12 12 13 13 11 10 10 9 8 8 8 7 6 7 7 7 4 5 5 4 5 5 5 5 5 4 4 4 4 4 4 4 4 4 5 4 4 3 4 6 5
9 10 10 8 7 4 6 9 1 2 3 4 3 7 6 9 4 10 8 9 13 15 18 17 15 15 14 14 15 15 15 15 16 16 15 16 16 17 17 16 14 13 13 14 15 15 15 15 16 16 15 14 16 15 15 14 13 12 14 13 12 10 9 8 9 7 7 7 6 7 7 5 6 6 5 6 6 5 5 5 4 4 4 4 4 4 4 3 4 4 4 4 5 4 5 6 4
Wind_Direction
159 141 120 134 173 219 22 358 40 327 58 60 61 28 98 77 100 91 95 122 79 357 91 94 109 121 146 128 113 101 29 50 330 136 184 115 119 110 120 122 115 130 126 175 131 128 131 129 131 127 126 129 130 131 128 127 128 131 133 136 137 136 136 136 135 134 136 139 147 147 146 140 136 134 133 131 130 131 130 127 122 121 119 116 114 113 110 108 106 102 96 93 93 91 96 104 112
150 137 149 116 98 10 320 95 98 8 40 59 47 69 96 86 72 69 111 95 95 117 86 88 78 87 94 114 142 114 35 33 12 97 79 112 110 111 124 127 131 128 135 132 122 121 123 127 128 122 123 127 129 129 128 128 130 131 133 134 136 137 136 139 138 140 141 150 160 151 146 142 140 137 134 134 133 134 132 129 127 125 123 119 119 116 112 110 105 101 98 96 94 94 98 110 123
145 146 110 185 52 74 319 40 97 81 85 69 25 56 68 72 82 76 92 100 112 117 104 100 98 79 127 137 44 9 79 30 66 69 98 128 113 135 134 130 127 122 112 111 110 113 118 133 124 120 122 126 127 130 130 131 132 133 135 137 136 139 142 141 143 148 152 158 153 149 146 143 142 139 138 138 138 139 136 132 131 129 128 126 123 122 122 121 124 119 119 114 108 108 106 109 119
135 153 138 127 333 41 354 22 90 115 96 163 88 69 96 106 87 87 85 110 123 128 116 77 51 328 90 70 86 81 87 58 55 111 120 151 128 140 139 129 122 111 108 110 121 125 129 127 125 125 124 125 128 127 131 133 133 135 138 138 139 140 140 143 146 147 150 148 148 147 146 145 143 142 142 142 142 141 138 135 134 137 137 139 137 137 136 139 137 146 148 147 142 130 126 115 115
135 135 104 78 100 290 142 102 135 105 108 174 101 100 112 113 121 109 93 78 52 43 84 127 89 52 82 106 173 27 163 87 79 71 109 83 116 130 129 122 122 122 125 126 119 127 134 136 137 136 134 133 132 131 129 134 136 138 140 140 140 138 140 143 145 145 145 146 147 147 146 146 146 146 146 146 144 143 141 142 145 148 150 151 151 145 146 147 155 162 167 169 148 133 131 149 129
104 105 17 57 134 243 37 44 49 84 189 146 105 134 127 130 115 112 105 78 66 50 50 71 117 130 52 8 354 87 126 124 154 94 115 127 126 127 127 126 128 125 131 136 137 140 144 143 144 141 137 134 132 133 136 139 142 140 140 142 140 140 143 146 146 146 146 146 145 146 144 146 148 147 148 149 148 149 150 152 155 158 159 158 156 154 152 160 167 171 177 189 175 151 147 174 178
133 86 6 29 311 101 118 124 140 137 19 137 127 133 130 120 118 113 108 86 53 66 38 102 113 112 79 63 69 76 116 106 124 127 108 132 128 132 130 130 125 127 137 141 141 145 151 149 148 142 138 136 136 138 135 135 140 138 136 141 142 146 149 148 148 148 146 147 147 146 147 148 149 151 153 154 155 156 158 160 162 162 162 162 160 160 163 163 167 174 182 224 238 205 172 242 243
60 87 184 112 207 58 72 137 122 141 67 100 132 125 128 129 128 111 124 111 143 102 102 92 55 95 76 52 101 69 79 41 82 98 109 124 131 133 132 128 125 136 140 142 145 154 156 154 149 142 139 139 139 139 137 140 142 145 144 145 148 149 150 150 149 148 149 148 149 150 151 153 155 157 158 160 161 161 161 163 163 163 164 165 165 162 168 173 178 189 205 213 254 281 297 291 291
50 68 59 38 38 23 63 99 107 48 106 108 99 114 122 129 128 110 85 91 93 77 103 121 134 82 164 95 64 78 58 82 86 108 113 122 135 135 132 133 133 138 143 143 148 163 155 155 147 144 141 142 143 145 148 149 152 154 149 149 150 150 150 148 148 150 150 152 154 156 157 158 158 159 160 160 161 160 160 160 160 162 168 173 175 174 173 196 210 221 229 229 266 303 308 302 294
57 109 202 155 116 87 99 18 91 161 127 135 134 141 132 124 104 107 115 86 105 105 99 37 74 108 115 98 102 46 101 106 113 104 118 127 133 134 133 139 142 143 144 147 149 159 160 153 151 149 146 146 145 147 149 150 151 150 149 149 151 150 148 150 151 153 155 159 160 161 161 160 160 158 158 155 154 157 157 158 163 173 181 188 203 202 212 225 244 252 263 263 273 272 286 293 297
150 284 184 8 30 82 119 128 106 110 125 121 106 124 128 121 111 97 101 103 95 109 94 101 84 113 112 87 63 90 116 118 124 140 142 138 138 137 136 142 145 148 147 149 155 161 161 154 154 151 149 147 148 148 150 151 151 149 149 153 154 154 154 156 159 160 162 164 165 164 162 159 157 154 150 150 154 157 161 171 180 193 203 221 235 256 254 260 262 270 268 276 277 274 280 286 288
91 190 131 108 113 149 180 125 121 111 120 123 117 136 146 116 109 110 117 111 122 114 128 215 143 126 92 108 114 124 125 128 134 141 146 140 139 138 139 143 147 148 149 149 155 163 157 161 153 155 153 152 151 152 152 153 153 153 156 158 159 159 161 163 165 167 167 167 167 165 160 156 153 150 151 155 161 168 177 191 205 216 230 237 249 252 260 268 269 275 281 278 272 274 280 284 290
207 116 113 80 146 94 151 106 136 127 126 154 145 134 129 117 125 132 124 124 133 128 167 112 145 151 103 112 119 128 136 145 141 150 145 146 142 135 138 142 144 144 147 147 153 155 157 156 154 153 156 156 156 157 157 157 157 159 161 162 162 163 165 167 168 168 168 169 166 163 158 155 153 157 163 169 175 184 194 205 217 227 238 244 252 259 262 276 275 279 286 282 279 276 276 287 298
191 188 129 115 37 113 123 126 135 128 170 153 118 139 137 126 139 131 127 129 148 125 141 135 134 101 95 112 136 151 156 151 147 147 149 143 135 135 137 139 144 147 146 149 154 157 161 160 159 158 157 157 162 161 163 162 162 163 166 167 166 167 169 169 170 168 168 168 164 160 159 161 164 170 174 178 182 191 206 218 231 242 249 254 261 266 264 272 285 295 287 288 282 278 277 282 284
229 144 81 123 58 76 209 126 172 145 173 155 155 140 135 127 136 139 144 137 92 123 122 95 145 110 190 158 163 172 161 155 151 147 149 143 135 136 137 135 142 151 153 155 159 163 167 164 161 162 157 160 170 161 166 169 168 169 170 171 171 171 171 171 172 170 171 169 166 163 165 170 176 178 180 184 194 200 210 228 247 263 266 265 271 278 284 288 288 285 286 276 276 276 275 275 283
210 94 94 102 182 136 206 145 169 133 168 169 165 130 117 134 141 138 159 133 126 134 145 128 237 131 160 182 158 155 151 149 149 148 143 146 143 145 140 144 150 157 158 165 167 176 173 167 163 161 160 172 173 168 170 175 175 174 175 176 175 174 173 173 174 174 174 173 171 170 172 177 180 185 187 196 201 212 221 227 271 274 277 277 279 285 293 293 291 292 287 284 294 329 290 284 289
356 74 80 55 183 158 175 127 150 161 160 168 159 142 134 148 163 32 91 115 130 158 173 149 156 119 152 132 144 140 144 143 143 145 138 130 135 143 152 153 156 167 174 180 183 182 181 175 173 159 179 186 176 171 161 165 190 179 179 179 179 177 177 178 177 178 179 180 175 177 179 156 168 192 235 199 221 146 127 228 247 264 272 272 278 284 293 297 298 299 296 310 284 246 281 302 302
115 116 106 157 194 168 187 157 181 156 146 162 158 156 135 144 124 114 105 105 119 123 100 97 80 97 118 123 134 140 142 144 148 146 145 143 150 152 159 165 167 181 181 183 195 190 187 184 179 173 182 191 172 156 162 161 204 183 161 172 172 181 182 184 185 173 186 158 183 174 124 129 110 169 193 218 182 215 233 226 243 256 261 267 273 285 293 302 305 305 310 311 320 320 330 13 20
119 142 107 207 180 229 152 159 163 134 157 158 160 161 147 147 132 152 129 140 138 116 111 118 107 109 116 129 140 144 148 150 153 155 155 158 165 166 169 171 181 179 188 186 190 192 192 180 182 187 190 186 166 170 161 189 188 154 154 157 172 185 184 182 160 183 120 142 102 120 130 109 168 213 211 221 206 227 228 242 242 252 261 261 288 297 303 307 303 321 334 331 323 357 35 14 6
229 125 219 239 209 222 171 140 167 149 147 148 153 168 137 138 133 154 143 149 146 145 137 130 134 138 142 143 149 151 152 155 159 159 163 166 169 172 173 177 182 188 187 186 184 191 185 185 192 193 191 180 168 176 167 179 180 160 172 172 174 182 186 165 164 169 149 157 139 133 134 163 193 219 235 234 237 235 248 246 241 254 263 267 285 350 359 349 344 348 338 340 359 340 17 29 341
255 138 187 224 190 139 209 146 158 145 148 150 153 149 130 148 141 149 142 129 171 171 165 155 156 152 148 152 155 155 157 159 162 165 167 169 174 178 181 183 185 183 183 175 181 193 191 189 190 198 193 180 177 180 176 188 180 164 184 190 183 190 200 181 172 177 151 163 165 145 146 178 198 227 236 259 272 219 260 295 299 1 22 15 360 9 9 334 356 338 340 341 320 322 326 327 342
110 211 199 186 135 162 190 157 148 151 149 140 145 143 154 136 138 148 154 154 181 184 186 156 148 150 153 156 161 159 159 162 166 170 172 174 175 178 179 186 191 178 169 181 192 191 193 192 192 193 188 188 188 187 189 189 176 179 185 198 187 186 199 205 182 178 170 174 186 180 173 176 202 223 226 227 220 177 267 299 305 23 31 338 337 300 272 298 295 345 315 312 309 306 293 288 278
225 270 222 189 172 167 177 144 152 141 147 143 153 155 139 156 158 166 166 170 180 165 163 155 155 158 157 156 159 165 165 166 169 175 175 178 180 182 179 181 182 180 184 193 189 195 193 193 196 188 191 190 196 192 186 185 193 188 186 188 183 193 191 205 200 192 195 189 189 192 187 194 201 210 219 219 224 195 236 258 272 339 18 274 270 233 255 252 236 256 282 278 285 294 301 302 302
197 243 167 186 170 166 156 150 146 147 146 153 147 144 150 143 154 180 169 1 141 142 152 154 149 145 151 157 167 167 169 171 172 175 178 181 182 183 181 180 184 178 184 191 193 193 193 197 194 189 192 192 196 188 187 191 194 188 195 198 195 198 187 203 205 201 196 196 194 200 199 194 192 207 217 216 226 209 236 233 241 253 230 239 260 212 252 272 279 275 269 274 284 291 296 304 309
203 246 180 168 148 143 138 139 140 134 125 123 122 137 157 158 150 147 180 145 132 131 137 140 146 150 157 159 165 167 168 173 175 177 178 182 185 181 179 180 183 181 192 195 192 191 196 196 190 196 192 193 192 180 197 198 190 194 197 197 201 202 199 208 206 199 203 199 197 201 195 198 199 202 215 220 201 222 230 233 225 235 236 244 231 280 235 267 279 276 266 271 275 284 295 295 294
203 189 156 131 133 131 148 127 128 124 119 115 98 106 119 114 100 65 153 143 133 131 137 145 150 155 161 165 165 167 172 175 177 178 182 182 183 177 183 185 185 192 198 192 187 195 192 189 194 200 194 187 186 183 199 196 196 200 203 202 200 204 209 208 205 206 207 198 200 200 203 197 200 201 212 209 200 223 217 220 220 220 220 242 303 292 258 248 256 255 259 259 270 280 291 282 278
184 134 140 137 141 132 151 129 128 121 126 122 113 117 125 136 125 118 151 142 132 136 143 151 157 162 164 165 166 171 174 178 179 176 178 182 186 186 187 188 189 196 194 192 188 190 191 185 198 202 196 188 179 192 194 202 197 206 207 202 198 208 210 204 208 212 209 205 205 199 204 205 201 205 207 206 210 216 212 213 222 208 222 222 196 231 259 224 208 216 223 232 243 265 269 266 269
138 133 90 111 131 135 139 124 132 116 86 119 115 116 118 96 118 157 157 153 145 144 151 156 162 164 165 167 168 175 180 181 181 177 182 181 188 188 189 190 193 192 191 196 187 179 185 191 196 201 198 190 183 197 197 203 203 207 207 196 203 209 196 202 210 209 210 208 200 199 204 206 203 207 208 209 210 210 214 216 223 211 224 205 198 211 226 229 226 224 209 213 234 275 304 304 291
145 121 111 114 113 122 153 142 156 124 132 128 115 91 60 149 166 155 150 149 151 150 154 161 164 167 168 169 170 179 185 182 185 186 189 188 186 188 190 193 190 190 194 191 182 175 188 191 194 200 196 192 189 197 199 201 202 207 204 203 204 197 195 197 207 208 210 201 196 200 205 204 205 204 209 211 211 211 214 219 227 231 231 206 206 214 222 220 156 359 327 322 330 332 333 330 325
109 110 126 108 105 127 221 125 144 123 158 137 125 121 232 260 151 150 150 151 151 152 158 163 166 169 171 173 177 183 187 185 190 191 188 187 189 190 191 193 191 186 181 184 178 185 188 192 194 194 195 195 197 201 197 196 200 201 204 206 204 195 200 201 213 211 204 198 198 203 203 204 206 208 202 211 207 204 212 222 228 238 227 211 205 207 211 189 201 249 279 339 331 348 333 323 341
138 106 99 141 124 181 223 174 159 126 181 153 78 134 239 186 163 155 159 155 157 162 167 167 167 171 171 175 179 187 192 192 189 189 190 188 188 190 191 187 188 183 174 178 186 186 185 188 190 195 195 198 199 202 199 199 193 193 197 200 204 200 203 209 217 208 205 201 194 199 197 200 205 203 204 196 193 173 228 245 243 242 220 190 190 197 202 223 276 283 315 331 333 331 333 310 308
138 112 280 221 151 204 211 274 164 140 212 216 84 71 181 169 171 166 160 164 162 164 172 171 171 173 175 175 181 188 192 191 191 190 189 190 187 188 189 187 184 181 181 180 184 183 188 189 189 191 194 195 198 199 199 196 191 191 190 195 201 200 200 206 208 210 207 196 191 189 192 197 196 191 168 136 115 203 222 230 241 256 263 196 179 171 157 190 296 313 307 323 301 289 286 292 291
230 156 187 173 167 164 164 228 235 171 160 205 118 166 95 187 179 170 167 166 170 167 174 176 175 178 178 178 183 188 185 193 193 190 190 188 190 187 186 184 183 183 181 178 182 183 190 189 190 191 192 192 193 196 192 188 186 190 191 194 195 192 197 202 202 199 195 194 192 188 187 190 164 160 119 68 17 345 278 247 242 260 283 188 165 174 154 170 184 265 285 257 211 259 283 286 285
202 319 169 192 159 166 191 201 217 245 153 190 141 138 190 164 172 172 174 171 171 174 177 179 179 180 182 180 185 186 188 188 193 191 191 188 189 192 188 183 181 182 181 181 182 181 188 188 192 193 193 188 184 184 185 185 190 193 198 196 185 190 203 204 185 171 185 186 185 194 187 178 147 114 101 130 202 225 223 233 247 190 176 182 187 120 197 211 241 241 267 252 239 247 271 272 281
197 185 172 216 181 172 175 171 209 176 213 150 167 146 168 157 167 175 177 176 175 180 179 180 181 181 182 182 185 185 189 193 196 192 189 190 189 192 190 187 181 179 181 183 181 183 184 189 193 196 189 188 184 183 183 190 187 184 181 186 185 188 193 198 176 184 190 176 190 184 149 105 90 73 143 180 207 232 218 223 238 225 210 213 212 233 245 267 243 220 239 264 246 236 246 257 265
187 172 193 168 167 204 194 193 162 166 170 148 162 164 166 162 174 176 178 181 182 185 181 180 184 182 182 183 186 185 191 198 193 185 187 188 190 188 188 187 183 180 179 182 182 182 185 188 191 195 193 187 181 180 182 185 172 173 165 113 129 175 181 187 201 202 190 182 130 109 114 125 124 167 209 197 190 218 215 220 242 255 251 251 273 286 343 242 241 231 233 248 265 257 237 252 256
168 138 221 182 183 197 212 185 170 168 141 185 184 159 163 172 177 181 180 179 186 185 185 185 187 185 184 185 189 189 191 198 190 184 182 189 190 188 185 182 184 181 180 181 184 185 182 182 180 194 194 182 175 186 190 175 168 153 109 190 193 186 182 188 197 203 190 167 142 135 151 163 164 189 184 194 199 203 199 203 220 254 247 239 238 236 239 252 266 259 267 278 279 294 289 242 252
164 182 167 254 180 194 196 184 162 178 159 199 269 164 174 178 181 181 178 178 191 188 188 190 190 190 187 186 190 192 198 193 177 181 187 188 189 187 182 184 180 179 188 183 185 186 182 179 183 191 186 184 191 192 188 176 173 181 168 190 178 165 174 179 202 206 186 170 168 173 175 181 177 189 202 196 195 194 195 203 222 230 225 226 225 225 245 258 277 282 272 289 205 233 267 256 251
164 165 188 144 272 28 82 168 169 179 110 197 157 174 188 184 182 182 184 190 194 189 188 190 187 191 190 192 191 192 185 187 185 189 185 188 188 186 184 187 187 185 182 186 187 179 180 182 189 184 187 190 200 193 172 183 185 180 178 169 173 149 167 161 162 176 170 175 180 183 181 185 190 189 189 187 191 196 201 199 216 215 212 217 220 221 241 260 255 262 247 228 301 254 252 259 261
184 120 146 210 217 172 182 216 174 181 166 186 183 168 198 185 204 203 201 196 199 196 192 192 190 189 191 195 193 189 186 183 187 189 188 188 186 187 188 188 187 184 181 183 183 183 181 189 187 185 192 197 196 191 185 193 182 146 95 119 135 129 177 156 131 132 157 162 188 183 186 187 187 187 184 184 190 197 192 207 208 205 220 202 200 213 220 243 263 270 261 241 225 280 322 306 334
287 187 188 157 167 231 164 187 153 112 17 101 79 45 353 194 193 217 229 223 220 212 204 202 204 202 197 194 191 187 187 186 185 188 189 187 186 189 190 190 180 182 183 183 183 185 186 190 190 188 193 199 198 188 188 174 122 100 93 72 81 70 43 67 93 124 169 184 169 186 193 182 182 190 187 189 193 197 199 207 200 207 200 205 188 200 218 230 237 238 228 222 201 195 254 286 322
302 229 196 200 194 194 111 130 134 155 113 200 145 28 248 231 218 211 206 209 220 209 203 210 205 208 202 195 201 199 193 185 184 186 187 188 188 187 189 187 185 185 186 187 185 186 186 191 188 190 195 198 197 191 184 158 168 154 149 144 146 159 161 151 172 192 198 192 189 182 175 182 185 189 189 193 194 180 183 181 195 186 197 202 182 193 210 231 245 241 222 200 210 205 184 136 314
179 266 190 204 211 187 144 147 137 158 196 212 193 178 252 276 214 213 214 215 219 212 211 216 210 207 200 199 199 197 195 191 191 186 182 183 188 186 188 188 188 186 190 183 183 186 189 189 189 189 194 196 192 190 176 165 165 172 178 183 184 186 188 221 215 209 176 193 144 158 170 171 174 164 171 163 160 155 144 158 182 191 163 165 174 153 226 230 235 227 204 184 221 184 125 160 225
224 234 157 195 206 197 170 162 176 197 41 85 170 103 143 196 231 208 207 213 220 224 223 218 213 209 203 201 199 196 195 190 185 187 187 186 184 186 188 189 187 189 182 176 183 184 190 191 186 193 194 189 188 181 178 176 174 176 180 189 190 188 189 197 183 169 142 136 138 153 145 150 151 144 142 157 165 156 151 158 163 149 123 141 131 160 184 223 227 306 218 229 239 155 160 209 259
215 211 156 188 201 215 176 174 188 181 155 183 204 220 64 244 267 180 176 206 229 230 224 218 213 210 205 200 200 197 194 191 185 184 187 186 187 188 184 186 188 182 176 179 182 186 190 189 188 189 194 189 186 181 179 183 178 175 178 174 187 197 188 172 150 141 135 137 139 127 136 150 159 169 163 164 167 156 154 156 157 132 134 153 133 137 155 71 141 132 113 138 200 235 158 204 157
255 213 151 173 178 212 170 195 187 155 166 199 196 191 198 281 264 152 192 208 225 228 224 221 210 207 205 202 201 198 194 191 191 188 186 188 187 186 185 180 178 182 180 181 181 182 186 182 186 188 200 193 185 183 181 183 177 162 162 175 174 173 155 126 140 149 155 155 156 169 173 165 184 182 192 141 151 160 155 154 150 152 160 175 159 176 153 131 126 146 248 227 209 217 203 199 206
145 78 119 78 46 6 332 92 104 90 208 219 199 193 187 219 219 181 166 208 213 221 225 225 214 214 210 205 199 196 192 190 190 192 191 191 189 182 175 180 183 177 178 180 181 184 183 183 187 192 200 191 184 184 179 185 177 169 171 174 166 157 157 148 145 160 164 152 170 184 179 192 185 181 136 138 164 165 164 160 155 167 171 178 177 175 178 181 189 183 202 213 169 239 177 225 251
185 205 221 312 315 12 42 351 77 160 228 244 209 199 190 206 264 237 211 207 210 208 211 209 204 206 206 203 201 196 191 188 190 188 190 189 183 187 181 183 181 180 176 181 185 184 184 186 186 194 197 192 186 183 181 184 177 179 177 166 163 162 157 162 167 176 181 182 180 175 180 166 184 165 127 147 157 172 169 174 176 165 170 178 188 197 185 191 185 164 161 177 236 265 236 203 223
149 129 124 180 270 19 255 86 206 209 196 236 197 184 316 249 225 202 208 220 220 217 214 207 202 204 204 201 198 192 189 187 187 190 188 185 186 184 189 189 181 180 182 183 186 186 186 187 189 192 201 192 188 181 185 184 178 180 174 168 167 163 165 168 174 176 181 179 174 159 155 167 158 154 189 150 176 175 171 161 168 169 178 199 200 178 213 191 183 179 198 198 199 231 228 182 191
141 169 162 173 185 197 223 250 272 311 301 265 178 171 217 281 281 228 212 215 216 213 214 216 198 199 200 198 192 188 187 188 190 189 189 188 189 189 188 187 186 184 183 184 185 186 187 190 191 194 201 192 187 184 186 182 185 179 174 170 170 167 173 175 178 176 181 177 167 167 167 168 174 182 175 166 181 180 175 190 184 189 185 191 193 205 216 216 192 198 203 195 202 224 208 204 211
195 143 169 180 158 157 212 188 192 208 209 233 42 130 220 181 231 208 206 219 223 216 214 212 195 201 202 194 183 185 186 190 189 190 190 190 191 189 187 188 188 187 187 187 187 188 186 191 192 196 198 194 187 189 187 186 182 178 178 175 171 173 175 179 182 178 169 169 175 166 172 168 166 183 171 180 176 177 192 185 196 181 191 207 210 218 236 239 234 237 239 238 245 196 201 212 225
201 169 100 162 216 141 221 198 174 208 211 13 146 190 188 196 253 298 287 241 236 208 211 183 189 200 194 170 183 190 191 190 191 193 194 193 191 189 188 190 192 192 190 188 189 188 190 194 194 198 198 191 190 188 190 185 180 178 178 175 178 176 175 175 174 171 168 170 171 167 172 174 177 171 188 174 191 177 178 186 187 193 203 213 209 209 232 242 241 235 269 272 278 238 223 224 236
218 122 203 213 166 157 114 23 248 88 54 245 193 308 306 313 326 319 333 162 190 169 187 191 194 188 173 184 190 193 191 192 192 194 193 190 190 191 191 191 193 193 191 192 192 192 194 192 193 197 197 193 193 192 189 185 178 176 184 180 173 173 173 172 171 171 173 179 168 171 165 182 177 174 179 189 189 190 181 172 181 200 210 226 224 231 238 252 245 237 255 262 264 259 228 242 242
130 186 224 181 115 109 155 213 19 97 170 250 144 195 228 145 238 306 358 146 175 173 182 195 187 174 182 193 192 192 193 195 194 194 191 188 188 189 192 195 193 192 193 196 197 197 195 193 194 194 194 195 197 190 189 184 180 182 180 181 178 175 175 171 166 170 173 166 176 169 168 163 178 186 177 189 185 187 189 181 179 198 209 207 218 226 226 238 233 243 240 244 244 243 236 249 242
211 225 169 167 235 251 297 117 208 137 221 247 252 215 249 181 234 208 222 185 194 193 182 170 176 182 193 194 196 195 196 192 193 195 190 191 191 193 194 195 196 197 198 198 199 195 194 197 199 197 198 199 193 190 188 187 183 183 181 181 178 176 174 166 168 166 163 168 173 175 172 178 180 181 180 184 187 191 188 188 184 197 200 208 208 224 228 238 219 235 241 239 250 224 228 247 253
268 65 175 129 125 173 157 199 174 145 232 110 284 100 219 207 223 202 199 196 181 159 164 187 186 188 190 195 192 191 193 194 194 193 193 192 193 194 195 197 196 197 199 202 199 196 198 199 197 201 204 198 192 193 190 188 190 182 182 178 181 174 171 165 166 161 166 173 177 176 179 172 188 180 190 187 190 200 199 193 193 190 194 197 205 227 222 235 220 230 239 243 257 232 236 245 257
206 199 214 197 186 225 120 64 139 181 173 183 184 262 276 251 212 187 209 179 170 169 183 186 189 190 193 191 189 193 193 194 195 194 194 194 194 197 199 199 200 198 199 196 194 197 201 198 199 200 197 195 195 195 191 194 185 188 178 180 179 175 173 164 160 163 166 180 181 181 181 188 171 187 183 187 197 205 202 199 191 189 187 200 212 237 237 230 225 238 244 244 268 248 244 255 253
192 190 212 179 139 132 186 246 36 108 137 199 150 242 262 265 194 197 197 190 176 186 178 185 184 185 187 190 196 191 194 198 196 196 195 194 195 197 199 199 202 198 198 198 200 202 202 199 201 200 199 198 197 195 195 192 190 186 184 179 178 176 166 158 158 164 174 182 187 187 189 172 181 203 181 197 201 205 200 192 186 193 197 208 218 232 246 218 227 231 253 237 242 240 239 250 250